Offers

There are 63 offers made by 38 RotMG players in the past two days who are selling Potion of Attack on RealmEye.

  • If you've found some offers you are interested in, then contact the players in-game, or send them a message through RealmEye,
    if they're not online.
  • If you haven't found among the current offers what you are looking for, just post an offer for it!
    Click here to see how!

Who is for ?
SellingBuyingQty.AddedOffer byLast seenSrv.
×1×2152019-02-15 21:46:28Yurusuhidden
×1×2402019-02-15 21:34:41Maginallllhidden
×1×3402019-02-15 21:34:41Maginallllhidden
×1×2402019-02-15 21:34:41Maginallllhidden
×1×12562019-02-15 02:17:00Reddrakneshidden
×5×112019-02-15 20:52:24ZGNIKhidden
×1×212019-02-15 20:49:36AnimeFlamehidden
×1×112019-02-15 20:30:05XnskX2019-02-15 21:15:25EUE
×1×112019-02-15 20:29:23Gamingsuge2019-02-15 20:21:25EUW
×8×212019-02-15 19:01:11SkillPadde2019-02-15 18:55:20EUW
×7×112019-02-15 17:50:35Okaylol2019-02-15 17:52:17USE
×4×112019-02-15 17:03:21Buldokanhidden
×5×132019-02-15 16:50:36Huntersvil2019-02-15 16:50:14AUS
×1×112019-02-15 16:28:48Arthirob2019-02-15 16:52:13EUW
×1×112019-02-15 16:19:14TemporalYT2019-02-15 16:45:51USE
×7×132019-02-15 15:40:09Mocharthidden
×1×112019-02-15 14:58:39Aanaujiram2019-02-15 15:43:04USW2
×1×212019-02-15 12:44:35ItachiToT2019-02-15 12:45:04EUW2
×1×112019-02-15 11:14:54DidlyDOOOMhidden
×1×112019-02-15 11:14:54DidlyDOOOMhidden
×1×112019-02-15 11:14:54DidlyDOOOMhidden
×3×112019-02-15 11:07:39IWILLBELTU2019-02-15 12:22:32AUS
×7×112019-02-15 10:20:06EssexRay2019-02-15 10:19:41AUS
×1×312019-02-15 07:23:13Zanarin2019-02-15 08:46:51USE2
×8×142019-02-15 04:27:36Foobu2019-02-15 04:25:35USW2
×4×422019-02-15 04:27:36Foobu2019-02-15 04:25:35USW2
×1×3122019-02-15 03:58:24Fatase2019-02-15 17:07:30USW2
×7×112019-02-15 03:48:22BabySieb2019-02-15 18:10:34EUE
×2×112019-02-15 03:23:47Fondewhidden
×1×112019-02-15 02:56:29ERICKMOTTA2019-02-15 04:07:32USE
×1×112019-02-15 01:27:26Ninjanomic2019-02-15 02:45:40USW
×2×2×3×1×112019-02-15 01:07:17SkySlurphidden
×2×112019-02-15 01:02:01Blaketflip2019-02-15 01:24:54USW2
×2×1×1×1×1×1×112019-02-15 00:48:40Gayisok2019-02-15 01:19:52EUN2
×1×182019-02-15 00:48:40Gayisok2019-02-15 01:19:52EUN2
×1×112019-02-15 00:37:06Ikenohidden
×6×112019-02-14 21:45:08Mayoto2019-02-14 21:47:01USW
×2×132019-02-14 20:54:02CheeseDie2019-02-15 18:02:12EUN2
×1×152019-02-14 19:25:03AdreIix2019-02-15 20:26:47EUN2
×1×112019-02-14 18:06:51RiftCaster2019-02-14 18:19:29EUW
×1×1×112019-02-14 15:10:26Dankersweghidden
×1×112019-02-14 15:10:26Dankersweghidden
×1×212019-02-14 03:01:54Snappydapihidden
×1×1×1×912019-02-14 01:38:11SeanSKhidden
×1×112019-02-14 00:54:04Greel2019-02-14 05:30:56USW
×1×112019-02-14 00:54:04Greel2019-02-14 05:30:56USW
×1×112019-02-14 00:54:04Greel2019-02-14 05:30:56USW
×1×112019-02-14 00:54:04Greel2019-02-14 05:30:56USW
×1×112019-02-14 00:54:04Greel2019-02-14 05:30:56USW
×2×112019-02-14 00:54:04Greel2019-02-14 05:30:56USW
×3×112019-02-14 00:54:04Greel2019-02-14 05:30:56USW
×2×112019-02-14 00:54:04Greel2019-02-14 05:30:56USW
×2×112019-02-14 00:54:04Greel2019-02-14 05:30:56USW
×1×2×112019-02-14 00:54:04Greel2019-02-14 05:30:56USW
×3×112019-02-14 00:54:04Greel2019-02-14 05:30:56USW
×2×112019-02-14 00:54:04Greel2019-02-14 05:30:56USW
×2×112019-02-14 00:54:04Greel2019-02-14 05:30:56USW
×2×112019-02-14 00:54:04Greel2019-02-14 05:30:56USW
×3×112019-02-14 00:54:04Greel2019-02-14 05:30:56USW
×1×112019-02-14 00:54:04Greel2019-02-14 05:30:56USW
×1×112019-02-14 00:54:04Greel2019-02-14 05:30:56USW
×1×112019-02-14 00:54:04Greel2019-02-14 05:30:56USW
×1×112019-02-14 00:54:04Greel2019-02-14 05:30:56USW